Year,Month,Day,Hour,Minute,Value (Times are PST for windspeed in km/hr)
2021,02,10,09,08,0.30
2021,02,10,09,09,1.00
2021,02,10,09,10,0.10
2021,02,10,09,11,0.10
2021,02,10,09,12,0.80
2021,02,10,09,13,1.20
2021,02,10,09,14,1.50
2021,02,10,09,15,1.10
2021,02,10,09,16,0.80
2021,02,10,09,17,0.50
2021,02,10,09,18,3.60
2021,02,10,09,19,1.10
2021,02,10,09,20,1.70
2021,02,10,09,21,1.50
2021,02,10,09,22,3.80
2021,02,10,09,23,3.40
2021,02,10,09,24,1.50
2021,02,10,09,25,3.10
2021,02,10,09,26,2.70
2021,02,10,09,27,3.40
2021,02,10,09,28,2.50
2021,02,10,09,29,1.40
2021,02,10,09,30,0.20
2021,02,10,09,31,0.00
2021,02,10,09,32,1.40
2021,02,10,09,33,0.50
2021,02,10,09,34,1.80
2021,02,10,09,35,3.90
2021,02,10,09,36,2.70
2021,02,10,09,37,3.50
2021,02,10,09,38,2.80
2021,02,10,09,39,1.00
2021,02,10,09,40,0.10
2021,02,10,09,41,3.30
2021,02,10,09,42,5.00
2021,02,10,09,43,5.30
2021,02,10,09,44,5.00
2021,02,10,09,45,5.20
2021,02,10,09,46,4.60
2021,02,10,09,47,3.60
2021,02,10,09,48,1.70
2021,02,10,09,49,5.70
2021,02,10,09,50,4.20
2021,02,10,09,51,5.30
2021,02,10,09,52,3.00
2021,02,10,09,53,6.00
2021,02,10,09,54,4.10
2021,02,10,09,55,5.40
2021,02,10,09,56,3.20
2021,02,10,09,57,5.00
2021,02,10,09,58,6.50
2021,02,10,09,59,6.70
2021,02,10,10,00,7.00
2021,02,10,10,01,5.10
2021,02,10,10,02,4.20
2021,02,10,10,03,4.50
2021,02,10,10,04,4.50
2021,02,10,10,05,4.60
2021,02,10,10,06,7.10
2021,02,10,10,07,7.10
2021,02,10,10,08,5.00
2021,02,10,10,09,3.20
2021,02,10,10,10,3.40
2021,02,10,10,11,2.30
2021,02,10,10,12,2.80
2021,02,10,10,13,6.20
2021,02,10,10,14,7.50
2021,02,10,10,15,3.80
2021,02,10,10,16,4.20
2021,02,10,10,17,5.60
2021,02,10,10,18,3.40
2021,02,10,10,19,3.20
2021,02,10,10,20,4.10
2021,02,10,10,21,4.00
2021,02,10,10,22,1.70
2021,02,10,10,23,3.40
2021,02,10,10,24,4.10
2021,02,10,10,25,2.00
2021,02,10,10,26,5.10
2021,02,10,10,27,5.70
2021,02,10,10,28,9.80
2021,02,10,10,29,4.70
2021,02,10,10,30,5.00
2021,02,10,10,31,5.30
2021,02,10,10,32,6.40
2021,02,10,10,33,4.10
2021,02,10,10,34,3.70
2021,02,10,10,35,2.90
2021,02,10,10,36,2.40
2021,02,10,10,37,2.80
2021,02,10,10,38,4.10
2021,02,10,10,39,6.30
2021,02,10,10,40,6.40
2021,02,10,10,41,3.60
2021,02,10,10,42,6.10
2021,02,10,10,43,5.10
2021,02,10,10,44,3.60
2021,02,10,10,45,5.60
2021,02,10,10,46,7.40
2021,02,10,10,47,5.60
2021,02,10,10,48,6.10
2021,02,10,10,49,3.70
2021,02,10,10,50,8.40
2021,02,10,10,51,8.50
2021,02,10,10,52,3.10
2021,02,10,10,53,7.00
2021,02,10,10,54,5.60
2021,02,10,10,55,9.40
2021,02,10,10,56,5.20
2021,02,10,10,57,3.90
2021,02,10,10,58,3.10
2021,02,10,10,59,6.20
2021,02,10,11,00,10.30
2021,02,10,11,01,8.80
2021,02,10,11,02,8.70
2021,02,10,11,03,2.10
2021,02,10,11,04,7.30
2021,02,10,11,05,2.40
2021,02,10,11,06,2.70
2021,02,10,11,07,5.00
2021,02,10,11,08,2.20
2021,02,10,11,09,3.40
2021,02,10,11,10,2.80
2021,02,10,11,11,2.70
2021,02,10,11,12,3.40
2021,02,10,11,13,2.80
2021,02,10,11,14,1.50
2021,02,10,11,15,6.20
2021,02,10,11,16,5.00
2021,02,10,11,17,1.50
2021,02,10,11,18,2.40
2021,02,10,11,19,4.00
2021,02,10,11,20,1.80
2021,02,10,11,21,1.50
2021,02,10,11,22,2.40
2021,02,10,11,23,3.70
2021,02,10,11,24,0.60
2021,02,10,11,25,1.60
2021,02,10,11,26,3.30
2021,02,10,11,27,3.90
2021,02,10,11,28,2.40
2021,02,10,11,29,3.50
2021,02,10,11,30,7.30
2021,02,10,11,31,8.60
2021,02,10,11,32,5.00
2021,02,10,11,33,7.40
2021,02,10,11,34,3.10
2021,02,10,11,35,5.40
2021,02,10,11,36,6.20
2021,02,10,11,37,7.80
2021,02,10,11,38,5.60
2021,02,10,11,39,9.90
2021,02,10,11,40,10.40
2021,02,10,11,41,8.30
2021,02,10,11,42,5.90
2021,02,10,11,43,8.90
2021,02,10,11,44,10.10
2021,02,10,11,45,3.60
2021,02,10,11,46,4.50
2021,02,10,11,47,7.80
2021,02,10,11,48,7.90
2021,02,10,11,49,10.40
2021,02,10,11,50,5.70
2021,02,10,11,51,5.90
2021,02,10,11,52,8.10
2021,02,10,11,53,6.10
2021,02,10,11,54,10.20
2021,02,10,11,55,8.30
2021,02,10,11,56,7.20
2021,02,10,11,57,9.10
2021,02,10,11,58,9.30
2021,02,10,11,59,7.50
2021,02,10,12,00,7.40
2021,02,10,12,01,7.20
2021,02,10,12,02,5.10
2021,02,10,12,03,6.90
2021,02,10,12,04,8.50
2021,02,10,12,05,6.20
2021,02,10,12,06,7.40
2021,02,10,12,07,9.20
2021,02,10,12,08,13.90
2021,02,10,12,09,13.00
2021,02,10,12,10,9.70
2021,02,10,12,11,7.90
2021,02,10,12,12,7.80
2021,02,10,12,13,8.60
2021,02,10,12,14,8.70
2021,02,10,12,15,9.70
2021,02,10,12,16,11.70
2021,02,10,12,17,9.60
2021,02,10,12,18,7.10
2021,02,10,12,19,8.80
2021,02,10,12,20,8.20
2021,02,10,12,21,8.50
2021,02,10,12,22,12.70
2021,02,10,12,23,8.40
2021,02,10,12,24,15.00
2021,02,10,12,25,8.20
2021,02,10,12,26,9.50
2021,02,10,12,27,8.90
2021,02,10,12,28,7.60
2021,02,10,12,29,7.40
2021,02,10,12,30,9.00
2021,02,10,12,31,10.30
2021,02,10,12,32,8.00
2021,02,10,12,33,10.00
2021,02,10,12,34,5.60
2021,02,10,12,35,3.90
2021,02,10,12,36,6.70
2021,02,10,12,37,10.30
2021,02,10,12,38,7.30
2021,02,10,12,39,8.70
2021,02,10,12,40,7.50
2021,02,10,12,41,7.70
2021,02,10,12,42,9.60
2021,02,10,12,43,9.80
2021,02,10,12,44,7.90
2021,02,10,12,45,6.20
2021,02,10,12,46,6.10
2021,02,10,12,47,5.30
2021,02,10,12,48,3.10
2021,02,10,12,49,7.40
2021,02,10,12,50,8.50
2021,02,10,12,51,4.80
2021,02,10,12,52,8.40
2021,02,10,12,53,10.40
2021,02,10,12,54,7.70
2021,02,10,12,55,14.80
2021,02,10,12,56,8.70
2021,02,10,12,57,11.70
2021,02,10,12,58,11.60
2021,02,10,12,59,11.50
2021,02,10,13,00,10.60
2021,02,10,13,01,5.90
2021,02,10,13,02,10.20
2021,02,10,13,03,11.30
2021,02,10,13,04,6.60
2021,02,10,13,05,8.20
2021,02,10,13,06,9.20
2021,02,10,13,07,7.20
2021,02,10,13,08,8.90
2021,02,10,13,09,10.20
2021,02,10,13,10,4.40
2021,02,10,13,11,6.70
2021,02,10,13,12,7.10
2021,02,10,13,13,5.30
2021,02,10,13,14,13.80
2021,02,10,13,15,11.00
2021,02,10,13,16,9.00
2021,02,10,13,17,5.80
2021,02,10,13,18,6.30
2021,02,10,13,19,8.00
2021,02,10,13,20,8.00
2021,02,10,13,21,10.50
2021,02,10,13,22,11.60
2021,02,10,13,23,10.60
2021,02,10,13,24,9.70
2021,02,10,13,25,7.80
2021,02,10,13,26,7.40
2021,02,10,13,27,4.70
2021,02,10,13,28,6.50
2021,02,10,13,29,8.30
2021,02,10,13,30,6.00
2021,02,10,13,31,5.90
2021,02,10,13,32,15.50
2021,02,10,13,33,14.40
2021,02,10,13,34,8.20
2021,02,10,13,35,6.70
2021,02,10,13,36,5.60
2021,02,10,13,37,8.70
2021,02,10,13,38,9.00
2021,02,10,13,39,15.10
2021,02,10,13,40,11.40
2021,02,10,13,41,11.30
2021,02,10,13,42,6.60
2021,02,10,13,43,6.20
2021,02,10,13,44,9.70
2021,02,10,13,45,7.90
2021,02,10,13,46,8.50
2021,02,10,13,47,7.60
2021,02,10,13,48,10.30
2021,02,10,13,49,6.40
2021,02,10,13,50,9.60
2021,02,10,13,51,8.70
2021,02,10,13,52,11.50
2021,02,10,13,53,5.40
2021,02,10,13,54,8.60
2021,02,10,13,55,11.60
2021,02,10,13,56,15.50
2021,02,10,13,57,9.10
2021,02,10,13,58,8.80
2021,02,10,13,59,4.70
2021,02,10,14,00,10.10
2021,02,10,14,01,7.50
2021,02,10,14,02,8.40
2021,02,10,14,03,9.10
2021,02,10,14,04,5.80
2021,02,10,14,05,8.40
2021,02,10,14,06,7.00
2021,02,10,14,07,6.90
2021,02,10,14,08,8.90
2021,02,10,14,09,7.70
2021,02,10,14,10,11.20
2021,02,10,14,11,11.80
2021,02,10,14,12,9.40
2021,02,10,14,13,8.10
2021,02,10,14,14,7.10
2021,02,10,14,15,11.50
2021,02,10,14,16,7.90
2021,02,10,14,17,13.10
2021,02,10,14,18,12.20
2021,02,10,14,19,8.30
2021,02,10,14,20,8.70
2021,02,10,14,21,7.60
2021,02,10,14,22,11.10
2021,02,10,14,23,5.90
2021,02,10,14,24,11.00
2021,02,10,14,25,12.20
2021,02,10,14,26,6.70
2021,02,10,14,27,7.10
2021,02,10,14,28,8.30
2021,02,10,14,29,6.30
2021,02,10,14,30,8.10
2021,02,10,14,31,8.90
2021,02,10,14,32,10.30
2021,02,10,14,33,12.80
2021,02,10,14,34,14.40
2021,02,10,14,35,7.60
2021,02,10,14,36,11.60
2021,02,10,14,37,11.20
2021,02,10,14,38,9.10
2021,02,10,14,39,6.40
2021,02,10,14,40,4.90
2021,02,10,14,41,8.60
2021,02,10,14,42,9.90
2021,02,10,14,43,8.50
2021,02,10,14,44,8.10
2021,02,10,14,45,7.30
2021,02,10,14,46,7.00
2021,02,10,14,47,8.20
2021,02,10,14,48,14.40
2021,02,10,14,49,7.90
2021,02,10,14,50,5.20
2021,02,10,14,51,9.10
2021,02,10,14,52,5.10
2021,02,10,14,53,4.80
2021,02,10,14,54,8.40
2021,02,10,14,55,7.00
2021,02,10,14,56,10.20
2021,02,10,14,57,13.50
2021,02,10,14,58,10.40
2021,02,10,14,59,5.70
2021,02,10,15,00,5.80
2021,02,10,15,01,8.70
2021,02,10,15,02,10.50
2021,02,10,15,03,7.70
2021,02,10,15,04,12.00
2021,02,10,15,05,10.20
2021,02,10,15,06,8.90
2021,02,10,15,07,7.80
2021,02,10,15,08,7.30
2021,02,10,15,09,8.50
2021,02,10,15,10,8.10
2021,02,10,15,11,10.10
2021,02,10,15,12,6.10
2021,02,10,15,13,9.10
2021,02,10,15,14,8.80
2021,02,10,15,15,8.70
2021,02,10,15,16,11.60
2021,02,10,15,17,14.30
2021,02,10,15,18,9.10
2021,02,10,15,19,10.80
2021,02,10,15,20,4.60
2021,02,10,15,21,10.20
2021,02,10,15,22,14.10
2021,02,10,15,23,11.80
2021,02,10,15,24,9.00
2021,02,10,15,25,10.00
2021,02,10,15,26,14.00
2021,02,10,15,27,9.30
2021,02,10,15,28,8.00
2021,02,10,15,29,6.90
2021,02,10,15,30,8.40
2021,02,10,15,31,8.20
2021,02,10,15,32,9.10
2021,02,10,15,33,6.40
2021,02,10,15,34,5.90
2021,02,10,15,35,9.30
2021,02,10,15,36,10.60
2021,02,10,15,37,10.10
2021,02,10,15,38,14.50
2021,02,10,15,39,8.10
2021,02,10,15,40,6.10
2021,02,10,15,41,11.60
2021,02,10,15,42,7.60
2021,02,10,15,43,7.10
2021,02,10,15,44,5.90
2021,02,10,15,45,6.80
2021,02,10,15,46,8.30
2021,02,10,15,47,10.60
2021,02,10,15,48,7.60
2021,02,10,15,49,7.80
2021,02,10,15,50,9.80
2021,02,10,15,51,12.30
2021,02,10,15,52,7.80
2021,02,10,15,53,5.90
2021,02,10,15,54,6.50
2021,02,10,15,55,10.20
2021,02,10,15,56,7.20
2021,02,10,15,57,12.50
2021,02,10,15,58,8.00
2021,02,10,15,59,10.50
2021,02,10,16,00,9.00
2021,02,10,16,01,9.10
2021,02,10,16,02,5.70
2021,02,10,16,03,9.30
2021,02,10,16,04,4.20
2021,02,10,16,05,13.30
2021,02,10,16,06,9.40
2021,02,10,16,07,11.30
2021,02,10,16,08,11.30
2021,02,10,16,09,11.30
2021,02,10,16,10,11.30
2021,02,10,16,11,11.30
2021,02,10,16,12,11.30
2021,02,10,16,13,11.30
2021,02,10,16,14,11.30
2021,02,10,16,15,11.30
2021,02,10,16,16,11.30
